Pine Ridge, SD

11:21 PM MST on February 21, 2017 (GMT -0700)
Pine Ridge

Weather History for KIEN - March, 2012

Change the Weather History Date:

Wednesday, March 28, 2012

  Actual Average Record
Temperature  
Mean Temperature 52 °F 40 °F  
Max Temperature 78 °F 54 °F 82 °F (2015)
Min Temperature 25 °F 27 °F 19 °F (2003)
Degree Days  
Heating Degree Days 13 25  
Month to date heating degree days 500 815  
Since 1 July heating degree days 5564 6165  
Cooling Degree Days 0 0  
Month to date cooling degree days 0 0  
Year to date cooling degree days 0 0  
Growing Degree Days 2 (Base 50)    
Moisture  
Dew Point 30 °F    
Average Humidity 49    
Maximum Humidity 85    
Minimum Humidity 12    
Precipitation  
Precipitation 0.00 in 0.04 in 0.05 in (2002)
Month to date precipitation T 0.76  
Year to date precipitation 1.37 1.55  
Sea Level Pressure  
Sea Level Pressure 29.86 in    
Wind  
Wind Speed 11 mph (South)    
Max Wind Speed 26 mph    
Max Gust Speed 32 mph    
Visibility 10 miles    
Events      
T = Trace of Precipitation, MM = Missing Value Source: NWS Daily Summary

Daily Weather History Graph

Daily Weather History Graph

Search for Another Location

Airport or City:

Trip Planner

Search our weather history database for the weather conditions in past years. The results will help you decide how hot, cold, wet, or windy it might be!

Date:

Astronomy

Mar. 28, 2012 Rise Set
Actual Time 6:38 AM MDT 7:12 PM MDT
Civil Twilight 6:09 AM MDT 7:40 PM MDT
Nautical Twilight 5:35 AM MDT 8:14 PM MDT
Astronomical Twilight 5:01 AM MDT 8:49 PM MDT
Moon 9:49 AM MDT (3/28) 12:23 AM MDT (3/28)
Length of Visible Light 13h 31m
Length of Day
12h 34m
Waxing Crescent, 31% of the Moon is Illuminated
Mar 28
Waxing Crescent
Mar 30
First Quarter
Apr 6
Full
Apr 13
Last Quarter
Apr 21
New

Hourly Weather History & Observations

Time (MDT) Temp. Dew Point Humidity Pressure Visibility Wind Dir Wind Speed Gust Speed Precip Events Conditions
12:52 AM 36.0 °F 28.0 °F 73% 29.99 in 10.0 mi Calm Calm - N/A   Clear
1:52 AM 34.0 °F 26.1 °F 73% 29.99 in 10.0 mi Calm Calm - N/A   Clear
2:52 AM 30.9 °F 24.1 °F 76% 29.99 in 10.0 mi Calm Calm - N/A   Clear
3:52 AM 28.9 °F 24.1 °F 82% 29.98 in 10.0 mi Calm Calm - N/A   Clear
4:52 AM 28.0 °F 23.0 °F 81% 29.98 in 10.0 mi Calm Calm - N/A   Clear
5:52 AM 26.1 °F 21.9 °F 84% 29.99 in 10.0 mi Calm Calm - N/A   Clear
6:52 AM 26.1 °F 21.9 °F 84% 29.99 in 10.0 mi Calm Calm - N/A   Clear
7:52 AM 36.0 °F 26.1 °F 67% 30.01 in 10.0 mi Calm Calm - N/A   Clear
8:52 AM 46.9 °F 28.0 °F 48% 29.97 in 10.0 mi Calm Calm - N/A   Clear
9:52 AM 62.1 °F 28.0 °F 28% 29.93 in 10.0 mi SSW 9.2 mph - N/A   Clear
10:52 AM 68.0 °F 30.9 °F 25% 29.89 in 10.0 mi South 15.0 mph - N/A   Clear
11:52 AM 72.0 °F 34.0 °F 25% 29.86 in 10.0 mi South 16.1 mph 26.5 mph N/A   Clear
12:52 PM 73.0 °F 34.0 °F 24% 29.83 in 10.0 mi South 21.9 mph 31.1 mph N/A   Clear
1:52 PM 75.0 °F 33.1 °F 22% 29.81 in 10.0 mi SSW 16.1 mph 25.3 mph N/A   Clear
2:52 PM 75.9 °F 26.1 °F 16% 29.79 in 10.0 mi South 16.1 mph 28.8 mph N/A   Scattered Clouds
3:52 PM 78.1 °F 21.9 °F 12% 29.76 in 10.0 mi SW 16.1 mph 21.9 mph N/A   Partly Cloudy
4:52 PM 77.0 °F 27.0 °F 16% 29.75 in 10.0 mi SSW 12.7 mph 23.0 mph N/A   Partly Cloudy
5:52 PM 73.9 °F 30.0 °F 20% 29.75 in 10.0 mi South 15.0 mph - N/A   Partly Cloudy
6:52 PM 71.1 °F 30.0 °F 22% 29.75 in 10.0 mi South 13.8 mph - N/A   Clear
7:52 PM 68.0 °F 30.0 °F 24% 29.73 in 10.0 mi SSE 10.4 mph 19.6 mph N/A   Clear
8:52 PM 66.0 °F 33.1 °F 29% 29.72 in 10.0 mi SSE 17.3 mph 24.2 mph N/A   Clear
9:52 PM 62.1 °F 41.0 °F 46% 29.70 in 10.0 mi South 21.9 mph 28.8 mph N/A   Clear
10:52 PM 60.1 °F 44.1 °F 55% 29.68 in 10.0 mi South 20.7 mph 26.5 mph N/A   Clear
11:52 PM 59.0 °F 46.9 °F 64% 29.68 in 10.0 mi South 24.2 mph 31.1 mph N/A   Clear